User: anonymous   Login
Location: Bakov nad Jizerou
(50.4784°N, 14.9394°E)
Time: 02:52:35
(UTC+00:00)
Language:

Cosmos 2237 - Orbit

View from above orbital plane
View from above orbital plane
View from above satellite
View from above satellite

Ground track
Ground track

The orbit data is extracted from the following two-line orbital elements,

1 22565U 93016A   21260.61249795 -.00000172  00000-0 -66995-4 0  9994
2 22565  70.8465  13.2209 0007677 299.4076  60.6277 14.12494141468831
Epoch (UTC): 17 September 2021 14:41:59
Eccentricity: 0.0007677
inclination: 70.8465°
perigee height: 845 km
apogee height: 856 km
right ascension of ascending node: 13.2209°
argument of perigee: 299.4076°
revolutions per day: 14.12494141
mean anomaly at epoch: 60.6277°
orbit number at epoch: 46883

The dashed part of the orbit path shows where the satellite is in the earth's shadow,  

DLR